Observations for Trim Market St
| Time | AQI | Temp °C | Hum % | Pres Pa | CO μg/m³ | H₂S μg/m³ | NO μg/m³ | NO₂ μg/m³ | O₃ μg/m³ | SO₂ μg/m³ | PM1 μg/m³ | PM2.5 μg/m³ | PM10 μg/m³ |
|---|---|---|---|---|---|---|---|---|---|---|---|---|---|
| Monday 24 August 2026 | |||||||||||||
| 06:47 | 1 | 8.3 | 80 | 27,653 | 0.7 | 0 | 8.02 | 16.59 | 7.35 | 0 | 3.56 | 4.95 | 8.1 |
| 06:45 | 1 | 8.2 | 80 | 27,931 | 0.71 | 0 | 7.46 | 17.12 | 4.33 | 0 | 4.99 | 7.79 | 12.65 |
| 06:44 | 1 | 8.3 | 80 | 28,153 | 0.71 | 0 | 7.49 | 17.59 | 4.07 | 0 | 5.7 | 6.37 | 10.38 |
| 06:39 | 1 | 8.1 | 80 | 29,150 | 0.7 | 0 | 7.71 | 16.15 | 6.28 | 0 | 3.56 | 4.96 | 10.38 |
| 06:38 | 1 | 8.1 | 80 | 29,300 | 0.7 | 0 | 8.92 | 17.01 | 4.37 | 0 | 3.56 | 4.96 | 8.1 |
| 06:30 | 1 | 8 | 79 | 30,352 | 0.67 | 0 | 8.85 | 16.88 | 2.93 | 0 | 3.56 | 4.97 | 8.67 |
| 06:29 | 1 | 8 | 80 | 30,584 | 0.67 | 0 | 8.9 | 16.9 | 2.72 | 0 | 3.56 | 4.97 | 8.1 |
| 06:28 | 1 | 8 | 79 | 30,784 | 0.66 | 0 | 6.78 | 17.52 | 1.96 | 0 | 2.85 | 4.5 | 7.53 |
| 06:27 | 1 | 8 | 79 | 31,016 | 0.67 | 0 | 7.57 | 16.19 | 2.76 | 0 | 2.85 | 4.03 | 7.53 |
| 06:26 | 1 | 7.9 | 79 | 31,218 | 0.67 | 0 | 8.96 | 16.26 | 1.17 | 0 | 3.56 | 4.97 | 8.67 |
| 06:25 | 1 | 7.9 | 79 | 31,449 | 0.71 | 0 | 10.66 | 15.84 | 1.12 | 0 | 2.85 | 4.03 | 7.53 |
| 06:22 | 1 | 7.9 | 79 | 32,160 | 0.71 | 0 | 27.26 | 16.25 | 0.73 | 0 | 3.56 | 4.98 | 8.67 |
| 06:21 | 1 | 7.9 | 79 | 32,430 | 0.68 | 0 | 21.35 | 16.92 | 0.2 | 0 | 2.85 | 4.03 | 8.1 |
| 06:18 | 1 | 7.9 | 79 | 33,202 | 0.66 | 0 | 24.05 | 17.53 | 1.27 | 0 | 3.56 | 4.51 | 8.1 |
| 06:17 | 1 | 7.9 | 79 | 33,430 | 0.65 | 0 | 17.66 | 13.49 | 5.38 | 0 | 3.56 | 4.04 | 6.96 |
| 06:15 | 1 | 7.9 | 79 | 33,608 | 0.66 | 0 | 11.49 | 16.21 | 0.19 | 0 | 2.14 | 4.04 | 7.53 |
| 06:13 | 1 | 8 | 79 | 34,075 | 0.63 | 0 | 7.62 | 14.7 | 1.34 | 0 | 3.56 | 4.99 | 8.1 |
| 06:12 | 1 | 8 | 79 | 34,256 | 0.65 | 0 | 7.05 | 14.96 | 1.42 | 0 | 3.56 | 4.99 | 8.1 |
| 06:05 | 1 | 8 | 79 | 35,047 | 0.65 | 0 | 6.76 | 14.57 | 0 | 0 | 2.14 | 3.1 | 6.96 |
| 06:00 | 1 | 8 | 79 | 34,813 | 0.67 | 0 | 9.71 | 15.19 | 0 | 0 | 2.85 | 5 | 8.1 |